GFSSE_500_rhum_021.txt.gz
RH
51 45 41 53 61 65 86 65 49 31 22 13 5 3 6 8 9 10 11 12 12 11 10 10 11 11 10 8 6 7 7 7 10 13 13 13 13 16 17 17 17 18 14
67 46 53 69 76 86 67 55 44 34 25 8 4 4 8 9 10 11 12 12 12 10 10 11 11 12 10 7 6 7 7 7 8 10 12 16 17 16 19 19 19 19 18
70 61 63 77 93 82 57 50 34 28 16 5 5 6 8 8 9 9 9 10 10 10 10 11 12 9 7 7 7 6 7 7 7 8 10 9 14 16 19 20 19 21 28
98 80 90 97 96 71 59 50 34 26 9 6 5 6 8 8 7 7 8 8 9 9 10 12 9 8 6 6 8 8 9 10 12 11 11 12 15 18 20 22 19 22 36
95 96 97 97 96 80 78 58 37 22 6 6 5 7 8 7 7 6 7 8 8 9 11 10 8 9 16 10 8 8 11 14 16 17 17 20 21 22 20 22 24 26 25
96 96 96 94 96 87 79 52 36 7 4 6 6 7 8 7 6 6 6 8 9 11 11 12 14 25 28 21 10 9 8 11 16 21 20 20 17 18 20 22 22 25 28
96 96 97 93 93 94 95 73 24 4 6 6 6 6 7 6 6 7 8 8 10 12 13 19 42 42 36 31 16 16 16 13 10 14 16 17 16 15 17 18 22 25 27
96 96 94 94 96 92 96 77 5 6 6 5 5 6 5 5 7 8 8 10 14 15 29 38 51 45 44 35 19 20 20 22 24 15 12 14 14 14 15 19 20 23 26
96 96 96 96 91 95 59 6 6 6 6 6 5 5 6 7 7 8 12 16 18 26 44 50 50 45 39 27 24 23 19 21 25 26 27 22 12 13 14 19 20 22 25
97 96 92 92 83 40 14 5 6 7 6 6 5 6 6 7 11 12 15 17 26 31 59 64 53 44 43 29 24 21 20 21 26 29 30 30 29 27 25 22 20 22 25
96 88 95 51 20 9 9 8 7 6 5 6 8 12 17 14 13 15 23 30 38 38 44 43 41 40 37 31 30 32 33 30 30 31 36 34 32 32 30 27 24 20 22
74 69 30 36 10 8 8 8 10 14 14 16 18 19 17 20 35 44 47 46 47 50 51 42 38 42 41 34 30 35 40 36 40 40 47 42 39 36 33 31 28 24 22
19 15 7 8 15 11 13 16 18 16 21 23 28 30 38 44 43 44 60 64 86 86 58 43 41 40 40 41 41 42 45 48 49 47 49 46 42 40 39 37 37 35 29
6 6 7 9 16 16 18 21 20 20 25 24 26 38 67 80 91 90 94 96 91 80 75 61 54 58 52 50 64 61 55 58 52 44 39 24 18 17 16 16 18 21 29
9 13 18 18 19 20 23 29 43 50 54 66 82 93 96 99 98 98 98 99 86 82 70 65 71 72 63 58 58 54 54 60 48 24 20 17 17 18 17 16 15 13 12
21 22 20 20 22 30 57 69 87 97 97 96 95 95 99 97 99 97 94 93 79 72 68 72 79 68 58 59 53 56 58 52 34 25 24 20 19 20 22 21 20 19 16
23 22 22 25 30 45 65 78 99 98 96 97 96 98 92 94 81 67 57 41 66 72 60 70 65 70 72 70 72 62 31 24 25 24 23 26 25 22 22 21 21 20 19
35 40 45 51 59 65 63 78 90 98 96 94 94 64 54 57 62 55 51 56 61 70 73 70 60 52 49 46 42 35 25 24 24 21 21 18 17 21 17 15 16 16 16
62 63 71 76 76 68 67 81 97 71 42 53 66 67 66 59 55 51 53 53 51 43 36 37 36 35 33 34 32 28 27 22 22 21 23 22 21 21 21 19 17 14 14
67 64 59 54 58 64 82 78 58 48 52 66 70 62 59 44 48 48 50 48 44 38 36 39 41 48 49 45 44 46 46 43 40 37 34 32 28 22 16 14 12 11 10
52 50 43 44 52 78 89 63 57 37 35 43 34 29 39 46 60 61 53 48 52 62 64 67 67 72 69 60 52 49 46 41 34 28 24 22 21 20 18 16 13 12 11
43 35 36 53 64 65 65 38 28 19 19 19 23 24 26 31 38 48 76 81 69 74 79 73 68 66 61 55 45 34 28 27 28 27 24 21 20 18 18 16 16 13 12
64 60 57 66 66 52 28 19 18 18 19 20 22 22 25 32 37 45 49 58 74 76 71 63 60 61 48 39 37 34 31 28 23 24 21 19 17 14 13 13 13 12 12
48 35 25 22 22 21 19 19 19 18 19 19 18 21 23 26 35 38 36 47 57 61 63 66 59 44 43 41 37 40 35 26 20 17 15 15 15 17 17 14 9 6 5
22 18 18 17 18 18 18 18 19 21 23 23 22 23 25 27 30 30 33 50 69 72 67 57 52 54 47 43 42 32 24 20 17 15 12 15 14 10 5 4 4 5 6
16 17 18 18 19 19 20 22 28 29 29 30 30 38 41 36 33 35 40 57 61 64 61 55 54 49 47 45 27 23 22 17 16 14 9 6 4 6 7 8 10 13 12

GFSSE_500_rhum_024.txt.gz
RH
88 85 69 62 56 47 44 66 73 70 50 35 26 10 4 6 8 9 10 11 11 11 10 9 9 7 5 4 4 3 4 4 3 4 5 9 12 11 11 11 16 14 14
92 94 92 66 54 51 67 80 82 66 47 34 25 7 5 8 9 10 11 12 12 10 9 9 9 8 6 5 4 4 4 4 4 4 4 17 19 10 13 12 13 13 13
98 95 81 76 76 65 76 82 84 55 33 22 12 4 6 8 9 10 9 9 9 9 9 9 10 8 7 9 6 5 4 5 4 6 4 8 12 10 13 14 16 16 14
90 97 96 94 92 87 89 96 79 46 31 21 7 4 6 8 8 8 7 8 8 9 9 11 11 10 9 19 16 7 4 5 5 9 4 10 14 14 17 19 19 19 19
90 98 100 97 95 97 98 99 74 52 29 16 6 6 7 8 7 7 6 7 8 8 9 11 11 12 37 32 28 19 8 6 7 6 12 10 16 17 17 17 17 17 20
98 96 96 93 97 96 96 97 95 61 26 5 6 6 7 8 7 6 6 8 8 8 10 11 12 24 42 38 35 28 13 11 11 8 9 10 13 15 15 14 14 17 19
88 94 97 100 97 97 97 96 96 60 7 5 7 6 7 8 6 6 7 8 8 9 14 19 27 31 37 41 36 23 18 20 17 8 16 11 10 10 12 13 13 13 17
96 96 96 96 96 96 95 95 95 52 7 6 5 5 6 8 5 7 8 7 10 12 15 18 34 52 38 41 40 28 22 19 14 10 16 12 18 21 16 12 12 13 15
97 96 97 96 96 97 96 92 47 10 6 5 11 12 7 5 7 7 9 12 12 13 16 24 31 48 47 43 44 37 27 23 20 17 14 12 12 19 24 27 25 21 21
97 94 95 95 98 92 83 45 25 21 8 13 5 5 5 7 9 15 14 14 17 23 38 38 38 38 34 37 38 34 31 29 24 21 24 18 15 19 19 25 28 28 27
97 96 96 95 94 79 43 22 12 6 6 6 7 7 11 14 14 17 19 20 37 59 52 58 57 54 44 36 37 34 29 28 33 26 32 25 25 25 30 32 31 29 28
95 96 95 86 72 42 16 6 6 7 11 14 16 14 14 15 22 26 36 47 67 100 95 76 69 58 49 47 40 42 36 36 33 28 43 39 35 34 39 43 41 37 34
75 20 14 18 18 14 8 10 15 17 18 16 17 18 26 32 78 97 94 99 97 100 88 72 60 66 50 55 57 56 51 53 52 52 48 49 46 44 41 35 28 25 32
6 5 7 11 12 16 16 21 20 34 90 88 91 92 90 98 100 95 94 88 80 86 75 60 58 50 46 43 58 62 71 69 70 62 56 55 50 37 23 19 16 15 14
8 10 14 19 18 20 22 48 76 88 89 95 94 96 99 94 92 80 83 80 51 46 40 38 32 43 41 57 60 64 53 57 60 66 61 43 29 26 24 23 20 19 19
16 20 22 22 24 27 42 64 70 92 99 98 98 98 96 100 55 53 47 55 37 27 44 40 37 36 44 48 52 50 43 44 56 62 59 40 28 31 29 26 26 25 23
19 20 24 33 44 57 64 65 74 92 97 96 80 65 70 65 56 57 40 30 26 25 29 38 36 34 31 28 29 31 34 37 39 34 31 28 26 23 24 24 25 26 25
24 35 47 57 52 54 60 67 72 88 90 58 50 53 66 44 22 20 20 26 25 28 34 37 39 40 38 37 38 35 32 39 38 37 36 36 36 28 23 20 19 22 23
35 39 36 62 60 58 59 65 90 72 66 54 30 26 26 20 19 19 22 24 25 31 35 37 40 43 43 42 39 42 43 48 56 51 49 45 44 40 37 34 28 24 24
17 29 28 42 59 47 42 61 93 67 43 19 16 17 18 17 18 19 22 26 32 30 28 31 37 55 75 73 70 65 62 64 56 47 38 34 31 29 27 24 22 20 18
25 37 35 20 52 58 43 54 65 41 17 16 17 17 18 20 20 20 20 21 24 29 30 33 50 52 55 57 60 61 58 48 48 48 44 37 30 25 22 19 16 14 13
19 20 36 50 52 47 50 56 25 16 16 17 19 23 26 26 24 25 27 31 33 33 40 37 37 48 55 60 59 57 49 49 49 46 42 36 33 28 22 19 17 15 15
24 44 44 40 28 20 20 18 17 16 18 22 25 28 29 28 28 34 40 61 75 37 32 28 38 53 54 60 61 59 54 48 40 39 39 39 38 34 30 26 21 18 18
52 55 29 20 18 17 17 18 18 20 22 24 25 28 30 33 35 51 73 78 50 36 33 32 51 64 66 64 61 56 51 42 34 30 30 28 23 19 15 11 8 7 5
38 22 16 16 17 18 19 20 22 23 22 24 27 33 38 40 43 62 68 46 37 33 31 40 69 76 74 63 52 41 28 21 17 17 16 12 10 6 5 4 4 5 6
19 16 17 20 24 24 24 26 25 25 26 30 35 40 43 46 48 51 51 44 42 38 40 65 78 76 63 44 34 30 25 22 20 13 13 10 6 4 7 8 8 9 10

GFSSE_500_rhum_027.txt.gz
RH
96 94 94 81 75 84 79 74 56 53 70 76 67 46 21 7 6 8 8 8 9 10 9 8 8 6 5 4 3 2 3 3 3 3 3 3 15 18 17 10 7 7 7
72 86 94 92 95 99 99 69 58 66 76 78 63 39 16 6 7 9 9 11 11 10 9 8 8 7 6 4 6 5 3 3 2 3 3 5 5 8 8 6 7 8 11
95 96 97 96 97 94 84 75 79 89 85 85 45 23 13 6 8 10 10 10 9 9 9 8 8 8 7 7 14 14 9 6 4 4 5 4 5 6 7 9 9 10 13
68 96 96 96 96 99 97 96 96 96 95 88 37 15 6 6 9 10 8 8 8 8 8 9 9 8 9 18 25 22 12 9 6 5 7 6 6 8 9 11 13 14 16
64 80 77 94 97 98 98 96 96 97 96 85 38 9 6 6 8 8 7 7 7 8 8 9 10 10 12 22 35 22 12 10 9 6 7 7 7 7 10 12 14 14 13
70 79 68 78 90 97 97 97 95 96 94 87 35 7 6 7 8 7 6 7 7 8 8 10 15 19 21 28 18 34 30 22 10 17 11 12 8 7 8 8 10 12 13
75 76 85 98 96 96 97 98 97 98 90 74 14 8 7 7 8 7 6 7 8 7 10 11 16 20 26 46 38 29 31 27 22 18 17 14 10 7 10 13 14 11 10
84 92 91 96 98 98 97 97 95 96 82 17 10 7 6 7 11 26 7 7 7 10 10 14 17 26 31 44 48 42 36 26 27 26 23 18 16 13 9 8 12 19 21
86 89 89 99 97 96 96 95 95 94 83 50 22 9 26 37 25 5 8 10 11 12 15 38 42 41 44 46 45 42 38 32 30 26 28 24 22 18 13 11 13 14 21
88 96 96 96 95 96 95 93 82 76 57 45 32 28 24 7 7 9 12 14 16 17 28 55 62 65 62 52 52 41 39 36 38 36 35 33 28 26 22 19 16 19 21
92 96 98 96 96 97 96 89 62 39 35 31 17 8 10 12 11 15 17 17 31 50 56 72 73 65 56 56 51 43 47 43 47 51 44 42 43 43 32 29 31 37 37
81 96 96 95 93 86 58 30 25 16 11 10 12 11 11 15 14 42 73 66 71 68 63 64 68 58 47 47 50 46 41 50 52 49 50 53 52 51 47 41 37 42 40
96 96 96 89 23 18 9 8 10 15 63 83 77 72 75 66 64 74 56 70 66 56 49 44 34 49 36 40 43 51 50 55 59 46 58 63 60 53 55 52 50 46 34
87 82 76 39 16 12 13 16 28 69 77 83 79 75 78 71 72 70 40 52 69 63 67 54 26 17 14 16 19 30 29 43 67 50 51 55 57 54 47 54 48 40 27
28 31 22 15 16 17 20 40 53 68 86 92 88 72 49 64 64 59 38 41 35 29 18 16 14 18 24 24 27 27 26 26 30 29 27 27 32 46 56 58 47 33 30
10 14 15 18 22 28 37 45 47 62 86 92 88 45 40 46 48 40 21 18 17 19 20 21 20 23 28 29 28 27 26 30 33 34 34 30 32 34 34 33 33 31 30
19 19 24 34 37 45 45 49 62 73 100 72 60 46 22 27 20 18 19 19 19 20 21 22 22 22 22 24 28 32 31 32 35 38 34 34 34 35 36 36 37 33 27
20 28 31 36 34 46 63 55 58 70 76 71 53 20 17 18 18 19 20 21 21 22 23 24 25 26 26 23 24 30 35 41 49 58 49 50 45 44 41 37 35 32 32
24 39 42 20 34 54 60 66 67 60 70 62 23 18 17 19 22 24 24 25 26 27 30 38 45 33 26 26 25 28 40 45 55 56 59 60 54 48 44 39 36 32 28
23 55 66 34 45 56 69 79 68 62 60 24 19 18 21 24 27 28 27 27 32 37 43 48 50 40 31 28 26 29 46 48 53 53 52 52 50 49 46 40 35 30 25
21 37 22 48 66 46 56 52 41 36 18 18 17 21 22 25 25 27 30 34 40 45 51 49 41 35 35 31 32 44 56 56 58 58 54 50 45 39 34 29 28 26 24
21 34 57 71 59 26 19 27 18 17 18 18 21 22 24 26 28 30 34 36 37 38 40 45 41 44 39 37 42 52 54 60 57 51 46 38 32 27 26 24 23 21 19
12 24 61 70 41 17 17 18 17 18 20 21 22 23 24 26 28 32 38 42 42 45 48 48 47 49 44 50 59 55 48 44 34 32 34 30 29 33 31 24 19 16 14
16 34 75 50 20 17 19 20 20 19 20 21 24 22 25 28 31 34 36 36 40 41 44 42 51 53 56 62 56 54 54 41 37 28 29 36 36 33 26 20 8 5 6
20 35 21 22 17 21 23 20 18 17 16 18 19 21 22 24 24 24 27 28 31 37 50 48 57 59 66 61 57 57 47 47 43 45 34 28 28 36 24 9 4 7 8
23 29 17 18 23 24 21 19 18 18 19 20 21 22 23 24 25 27 28 30 36 45 60 59 63 67 61 59 62 64 54 38 44 38 35 39 37 19 10 6 8 10 10

GFSSE_500_rhum_030.txt.gz
RH
81 81 82 74 91 89 100 87 76 95 91 80 84 84 65 72 12 8 8 8 7 8 8 7 6 6 5 4 3 2 3 3 3 2 3 17 3 6 11 15 10 5 4
55 70 78 73 70 86 94 95 97 96 91 92 96 89 80 53 8 9 9 10 10 10 9 7 8 7 6 4 3 7 11 6 3 3 3 3 3 3 4 5 4 4 5
44 43 60 73 96 96 97 97 94 95 95 97 98 93 87 27 7 9 10 11 10 10 9 8 8 8 7 5 5 10 14 8 7 5 5 5 4 4 5 6 7 9 10
73 46 56 72 91 92 82 96 94 93 94 97 97 96 84 16 8 11 11 10 8 8 8 8 8 9 11 6 8 12 18 12 9 7 6 8 8 5 5 6 8 7 9
65 54 48 40 88 83 78 92 93 89 90 100 98 95 81 38 25 14 10 8 7 7 7 8 8 13 15 18 18 12 22 24 21 13 10 11 14 12 9 6 7 6 8
50 46 59 82 74 73 65 89 97 96 92 98 98 89 86 39 20 16 11 19 6 6 8 8 11 11 15 18 18 30 27 22 29 27 17 19 22 19 18 12 6 6 9
64 73 65 79 96 90 73 96 98 96 98 97 94 82 52 40 13 26 22 7 6 7 8 10 9 13 17 20 16 21 30 33 34 30 24 23 26 26 22 15 9 8 8
84 90 81 93 97 97 98 97 98 99 97 95 92 36 28 27 29 9 9 14 7 8 8 10 13 15 22 34 26 24 24 25 30 35 32 29 34 32 28 23 16 11 11
98 95 97 95 99 97 97 97 98 97 94 49 22 14 11 9 15 23 19 13 8 9 11 12 21 33 46 54 46 40 39 42 40 37 38 39 40 38 36 34 30 20 15
95 96 96 97 97 98 96 96 96 92 76 56 35 29 38 46 38 24 16 8 10 13 16 29 37 52 65 45 46 47 39 38 33 32 38 48 52 50 46 44 46 40 34
95 97 93 97 96 96 96 96 95 95 94 93 88 65 42 21 9 10 12 17 46 41 47 57 55 48 43 41 43 47 37 37 35 40 42 43 50 47 49 58 64 58 55
92 89 97 92 97 96 96 93 80 36 17 16 16 15 14 16 21 32 57 49 45 44 45 48 55 54 42 34 17 16 20 21 21 21 20 22 24 30 36 40 48 58 58
96 97 96 96 94 88 79 53 22 19 57 92 84 82 72 76 91 79 58 46 37 47 41 44 33 34 41 33 14 14 14 15 19 17 20 20 23 28 27 34 44 58 57
95 97 96 93 62 22 20 20 27 45 70 72 71 64 52 48 53 58 59 60 34 20 21 15 16 14 13 13 12 13 15 19 20 21 21 22 25 27 26 27 28 32 50
59 92 96 91 68 53 28 37 45 61 77 87 87 76 46 30 29 53 52 20 14 16 15 16 16 15 15 16 16 16 17 19 21 23 25 26 25 26 27 27 29 33 33
14 21 25 24 22 25 33 45 54 54 65 89 90 63 43 19 16 20 17 17 20 21 20 20 20 21 22 22 22 23 26 26 25 25 26 27 29 30 28 29 31 34 39
16 16 19 31 36 38 50 49 53 57 78 89 59 46 18 17 17 18 22 21 24 23 23 23 23 24 25 27 30 32 34 34 30 29 32 34 35 35 34 32 28 30 35
17 24 29 24 27 50 68 54 67 74 68 75 59 30 18 18 20 21 22 23 26 27 27 28 27 26 28 32 37 37 40 35 32 34 41 45 44 42 40 38 40 38 35
25 34 48 49 32 32 49 59 70 71 62 48 35 18 17 19 21 22 24 26 28 29 32 34 34 37 37 40 42 44 44 40 40 45 52 53 48 46 47 44 42 40 38
22 26 35 22 49 59 40 50 46 56 55 34 20 18 19 22 21 23 25 29 30 33 36 41 46 47 45 48 46 49 48 44 48 58 59 53 48 40 33 27 24 23 20
22 21 26 60 86 68 38 23 26 20 19 20 20 20 20 19 22 26 28 29 31 32 34 32 33 36 39 43 44 52 54 56 59 60 56 52 43 35 27 22 19 18 18
24 21 45 70 78 48 19 27 19 19 20 21 21 20 21 23 24 25 26 26 26 27 27 28 29 30 32 42 54 55 56 65 67 61 54 51 46 45 37 34 36 34 29
19 26 32 84 75 29 18 20 21 21 23 23 25 24 23 22 23 24 26 27 28 28 28 30 33 36 46 56 58 59 58 59 58 64 63 61 55 54 60 58 53 56 58
20 45 67 62 53 18 50 26 24 24 25 25 23 22 24 24 24 25 27 29 28 28 29 32 42 53 64 60 62 64 66 58 49 46 48 44 48 47 40 37 36 37 34
20 22 59 37 27 20 32 34 25 27 26 22 22 22 23 24 24 25 28 28 28 30 34 43 55 74 63 63 60 55 55 51 50 57 55 56 65 73 68 50 45 35 17
31 20 47 36 25 22 26 27 25 23 20 21 22 22 22 23 27 30 31 39 45 48 60 59 59 63 61 59 55 59 63 55 61 57 55 47 45 79 74 61 38 21 14

GFSSE_500_rhum_033.txt.gz
RH
64 71 73 84 86 87 92 98 90 93 95 89 88 82 81 82 78 66 11 9 8 6 7 7 6 6 6 6 4 3 3 3 3 3 2 2 3 2 2 3 3 3 3
62 73 61 59 63 75 79 91 97 97 94 96 92 89 92 85 84 48 10 10 8 9 9 9 7 6 6 6 5 5 6 9 8 7 6 4 4 4 4 3 3 3 3
76 69 55 52 44 51 76 92 93 90 94 96 95 97 100 92 91 44 9 10 11 9 10 8 7 7 7 11 9 8 13 16 13 7 5 5 5 6 9 8 6 3 3
76 81 62 71 66 88 69 93 96 84 81 96 98 99 99 94 83 21 9 11 15 9 8 7 8 8 9 15 18 21 15 20 17 10 8 8 11 13 13 15 14 10 5
96 94 60 64 56 50 36 50 90 74 91 100 95 97 96 86 60 34 20 25 17 9 7 6 8 8 11 12 15 19 24 26 18 23 25 22 16 17 18 19 16 14 8
66 70 59 57 60 62 69 80 70 83 93 100 97 99 96 80 62 48 53 19 15 17 7 6 8 7 8 9 9 12 17 30 34 26 24 30 24 22 23 25 23 22 17
72 72 63 64 62 64 84 77 76 92 99 96 95 96 91 89 43 41 26 27 18 17 7 8 10 8 9 9 14 28 32 27 26 26 23 23 23 26 28 30 27 26 23
69 72 74 97 88 94 92 85 88 99 96 97 97 95 89 49 46 18 20 28 21 17 18 8 9 10 10 14 25 41 38 36 32 27 26 31 32 34 37 38 34 33 31
64 74 96 96 98 84 85 96 95 94 98 97 96 74 59 33 25 26 22 11 26 26 9 10 11 25 35 49 46 42 34 35 33 28 31 35 32 34 32 34 42 44 38
87 91 96 96 94 91 93 92 97 98 97 85 33 22 16 12 16 25 33 24 13 12 16 39 54 55 52 47 42 38 34 28 24 23 20 23 24 32 30 30 33 31 34
96 96 96 96 96 96 97 97 97 96 92 81 47 39 51 40 54 46 18 10 16 40 52 56 67 58 53 54 47 42 39 38 25 16 9 10 11 12 13 14 18 19 23
83 97 96 96 96 96 96 97 95 94 88 68 59 56 41 33 19 14 20 44 44 40 38 50 43 32 27 17 12 12 13 14 13 11 10 11 11 12 13 13 16 19 21
87 96 95 96 96 97 96 95 83 51 36 66 85 79 74 75 76 89 93 55 58 47 32 17 14 14 13 15 15 15 14 15 14 14 14 14 14 15 19 16 18 18 21
83 93 100 95 94 94 90 91 86 90 78 93 95 83 48 41 44 54 66 65 66 26 15 16 17 18 18 17 17 16 16 15 14 14 15 17 20 20 17 19 21 21 22
75 96 93 85 65 48 49 78 88 88 95 94 90 82 61 40 19 29 58 32 17 18 18 19 18 18 18 17 15 13 11 11 12 15 18 20 24 25 24 21 21 24 27
34 53 64 75 82 78 71 67 57 60 62 88 84 82 50 22 19 17 14 18 20 20 21 22 21 20 19 18 16 13 11 10 12 17 21 25 28 29 27 24 26 30 30
21 20 23 26 30 38 45 46 54 60 71 82 87 50 30 16 16 16 19 22 20 19 22 22 21 22 23 22 20 19 16 16 19 23 26 30 34 36 34 33 34 36 36
21 28 37 31 24 36 57 47 56 62 70 62 71 42 19 17 18 19 19 20 20 21 22 21 21 23 24 23 24 25 26 25 29 34 38 39 43 43 42 41 40 36 33
26 32 37 37 30 31 46 50 68 71 76 70 51 21 17 16 18 19 20 20 20 21 22 22 24 24 25 25 25 29 29 34 42 44 48 51 50 48 45 42 34 26 22
20 34 41 46 61 73 53 32 27 31 34 24 18 17 17 19 20 20 19 20 21 22 23 24 25 26 27 29 30 33 42 44 55 55 58 57 56 54 48 42 36 33 27
18 16 21 53 76 65 43 22 25 24 21 18 18 19 21 21 19 18 20 22 23 23 24 26 28 30 32 32 35 47 67 74 62 64 63 61 58 60 61 56 52 46 41
14 17 28 55 65 58 28 19 23 19 20 20 19 20 20 18 19 22 23 24 23 23 26 31 36 37 38 45 52 69 81 82 68 73 74 72 69 64 65 63 67 58 52
20 31 47 90 98 73 28 25 22 44 37 25 21 18 18 21 22 24 24 24 26 30 35 39 51 56 56 69 68 65 64 68 63 67 76 83 87 96 100 100 100 93 81
29 29 34 91 88 71 43 51 39 62 74 25 18 20 22 23 23 22 24 30 35 40 53 72 76 64 56 62 62 64 62 62 58 51 61 75 87 91 90 87 84 82 80
33 75 51 93 99 84 56 46 74 57 33 19 19 22 23 23 24 31 33 34 37 56 57 59 55 49 59 62 64 64 60 62 58 60 66 85 89 92 92 87 81 78 72
26 40 65 82 73 86 51 59 49 43 25 23 28 27 31 27 27 31 33 42 58 58 88 62 80 98 64 57 62 65 64 64 65 68 64 78 80 88 84 79 66 75 87